Tracking 35274 objects as of 10-Sep-2026
HD Live streaming from Space Station
objects crossing your sky now

COSMOS 2499 DEB

Track COSMOS 2499 DEB now!
10-day predictions


NORAD ID: 55724
Int'l Code: 2014-028AL
Launch date: May 23, 2014
Source: Commonwealth of Independent States (former USSR) (CIS)
Launch site: PLESETSK MISSILE AND SPACE COMPLEX (PKMTR)

Note: This is SATELLITE DEBRIS
Your satellite tracking list
Your tracking list is empty




NASA's NSSDC Master Catalog

Two Line Element Set (TLE):
1 55724U 14028AL  25178.24141416  .00111326  00000-0  40026-1 0  9991
2 55724  81.8017   3.1680 0110544 214.6489 144.7460 14.29688664120325
Source of the keplerian elements: AFSPC